This is the latest recevied weather packets stored in our database for station/object EA1BQO-1. If no packets are shown the sender has not sent any weather packets the latest 10 day(s).
| Time | Temp. | Humidity | Pressure | Rain* | Wind** | Luminosity | Snow |
|---|---|---|---|---|---|---|---|
| 1777671836 | 13.89° C | 72% | 1014.1 hPa | 0 mm | - | - | - |
| 1777671236 | 13.89° C | 72% | 1014.1 hPa | 0 mm | - | - | - |
| 1777670636 | 14.44° C | 69% | 1014.1 hPa | 0 mm | - | - | - |
| 1777670036 | 14.44° C | 68% | 1014.1 hPa | 0 mm | - | - | - |
| 1777669435 | 15° C | 67% | 1014.1 hPa | 0 mm | - | - | - |
| 1777668835 | 15.56° C | 67% | 1014.1 hPa | 0 mm | - | - | - |
| 1777668235 | 15.56° C | 65% | 1014.1 hPa | 0 mm | - | - | - |
| 1777667636 | 15.56° C | 63% | 1014 hPa | 0 mm | - | - | - |
| 1777667035 | 16.11° C | 63% | 1013.8 hPa | 0 mm | - | - | - |
| 1777666435 | 16.11° C | 62% | 1013.7 hPa | 0 mm | - | - | - |
| 1777665835 | 16.67° C | 59% | 1013.6 hPa | 0 mm | - | - | - |
| 1777665235 | 16.67° C | 57% | 1013.5 hPa | 0 mm | - | - | - |
| 1777664635 | 17.78° C | 54% | 1013.3 hPa | 0 mm | - | - | - |
| 1777664035 | 18.33° C | 48% | 1013.1 hPa | 0 mm | - | - | - |
| 1777663435 | 18.89° C | 45% | 1013.2 hPa | 0 mm | - | - | - |
| 1777662835 | 19.44° C | 43% | 1013.1 hPa | 0 mm | - | - | - |
| 1777662235 | 20.56° C | 41% | 1012.9 hPa | 0 mm | - | - | - |
| 1777661635 | 20.56° C | 40% | 1012.8 hPa | 0 mm | - | - | - |
| 1777661035 | 21.11° C | 40% | 1012.8 hPa | 0 mm | - | - | - |
| 1777660435 | 21.11° C | 38% | 1012.7 hPa | 0 mm | - | - | - |
| 1777659835 | 21.11° C | 38% | 1012.6 hPa | 0 mm | - | - | - |
| 1777659235 | 21.67° C | 35% | 1012.7 hPa | 0 mm | - | - | - |
| 1777658635 | 21.67° C | 34% | 1012.6 hPa | 0 mm | - | - | - |
| 1777658035 | 22.22° C | 33% | 1012.6 hPa | 0 mm | - | - | - |
| 1777657435 | 21.67° C | 32% | 1012.6 hPa | 0 mm | - | - | - |
* Rain latest hour (hover to see other rain measurements)
** Current wind speed in m/s (hover to see current wind gust speed)